Wetbulb
51.18 50.81 50.65 50.63 50.48 50.49 50.21 49.69 49.96 50.20 50.48 50.75 50.77 50.69 50.64 50.71 50.61 50.37 50.32 50.47 50.62 50.77 51.64 53.11 53.93 54.74 50.22 42.74 42.92 50.14 58.67 56.22 51.28 49.31 46.29 45.24 43.15 41.26 37.24 38.88 39.77 38.61 41.08 42.06 43.19 44.16 44.10
50.82 50.72 50.65 50.72 50.56 50.33 49.96 49.90 50.27 50.50 50.60 50.58 50.05 50.00 49.98 50.17 50.11 49.98 50.32 50.34 50.32 50.60 52.09 53.00 53.80 54.29 48.02 37.26 49.45 50.63 50.80 50.44 49.16 47.36 45.59 45.01 42.75 43.42 39.79 39.01 37.60 40.45 40.51 40.61 41.82 41.83 42.82
50.69 50.44 50.33 50.32 50.41 50.03 49.62 49.71 50.52 49.71 49.49 49.43 49.42 49.47 49.47 49.30 49.55 49.74 49.96 49.89 50.16 50.92 52.95 52.77 53.38 51.60 44.06 42.10 48.99 48.39 50.74 48.48 48.44 48.43 44.98 46.54 45.75 42.05 41.29 38.26 42.29 40.53 36.38 38.59 39.54 40.05 40.18
50.65 50.45 50.12 50.04 50.27 49.94 50.28 49.41 48.98 48.74 48.73 48.86 48.97 49.19 49.21 49.37 49.23 49.64 50.22 50.57 51.07 52.28 53.25 53.24 53.51 49.48 40.66 50.67 48.17 49.62 48.73 48.51 50.85 49.36 47.98 48.26 46.94 42.91 40.25 41.54 39.96 36.61 35.44 29.89 36.74 39.39 40.65
51.14 50.80 50.81 50.98 50.98 50.28 48.97 48.13 48.17 48.65 48.52 48.60 48.65 49.02 49.28 49.67 49.74 50.13 50.34 50.76 51.36 52.59 53.52 53.13 48.77 47.28 40.53 51.89 46.24 48.57 48.22 47.59 49.44 49.51 49.10 51.88 46.12 40.52 40.81 35.02 31.40 33.53 27.67 31.42 35.21 39.96 38.96
51.72 50.96 50.17 49.87 49.63 48.71 48.39 47.60 47.80 48.39 48.30 48.21 48.65 49.13 49.19 49.41 49.72 49.75 49.51 50.28 51.69 51.01 51.99 51.13 50.40 42.36 44.51 42.32 46.32 48.83 48.21 49.36 46.25 44.66 44.43 44.79 40.48 34.95 34.50 32.10 25.10 29.74 30.49 33.22 32.36 36.68 38.38
50.10 49.55 49.20 49.06 48.76 48.59 48.14 47.71 47.84 48.38 48.01 48.36 48.84 48.95 48.81 49.15 49.63 49.42 47.05 44.94 42.87 40.62 42.28 40.21 41.95 42.34 43.30 46.63 49.78 47.01 48.42 47.35 45.15 41.67 34.90 38.81 31.56 29.40 33.42 36.27 36.52 35.10 32.96 30.86 34.18 38.11 35.93
49.56 49.34 49.08 49.36 49.08 48.41 48.25 47.89 47.80 48.23 47.75 48.23 48.55 48.59 48.55 48.53 49.22 49.29 45.67 41.13 41.90 42.26 36.51 45.08 44.89 44.43 46.03 45.95 42.91 44.73 48.26 40.77 39.62 33.89 37.98 33.57 28.33 36.89 38.30 37.63 35.72 34.55 32.00 31.01 34.88 37.92 37.13
49.23 49.29 48.62 48.66 48.27 47.18 47.09 47.85 47.91 47.84 47.46 47.93 48.55 48.32 48.42 48.76 48.73 46.38 42.01 42.33 46.65 47.42 37.23 42.08 43.71 42.00 42.86 44.21 42.50 40.52 43.62 41.21 37.50 35.28 34.70 29.80 34.57 39.47 37.63 35.23 33.80 33.31 31.29 31.70 32.01 35.54 36.32
48.52 49.45 49.04 48.85 48.04 47.80 48.43 48.15 47.26 47.22 47.60 48.36 48.54 48.35 48.79 48.59 44.95 44.27 39.56 46.43 47.42 47.24 31.65 37.42 40.85 41.43 42.96 42.36 40.60 44.26 44.64 40.94 37.53 34.00 35.34 33.52 38.63 36.84 35.20 33.70 34.68 28.91 35.89 35.30 33.41 30.34 24.03
48.99 48.60 48.41 48.32 48.12 47.15 46.82 46.53 46.78 47.27 47.54 47.82 47.98 48.18 48.39 47.76 42.35 40.20 43.21 46.28 46.41 45.03 18.76 38.11 39.24 42.63 42.14 39.20 39.42 39.44 43.52 41.19 35.20 35.36 34.70 30.38 33.65 32.84 33.22 34.90 36.76 32.12 37.86 34.71 33.34 29.52 27.94
49.03 48.32 48.41 48.45 48.35 46.83 46.55 46.24 46.65 47.06 47.15 47.42 47.76 47.86 48.07 46.44 43.66 42.71 46.03 46.53 44.21 32.53 12.47 35.19 39.26 38.14 37.36 39.47 39.13 40.10 40.65 42.80 42.27 36.36 35.27 33.22 38.07 36.92 34.93 35.76 36.65 37.53 33.95 32.54 32.17 29.19 18.99
49.45 49.15 49.71 49.40 48.52 47.66 47.03 46.09 46.05 46.62 46.85 47.10 47.81 48.08 45.91 47.99 40.60 46.56 47.26 42.80 26.86 20.71 35.70 33.74 34.70 37.16 36.15 35.42 36.46 36.32 35.61 33.35 27.75 18.98 23.83 30.39 32.83 37.66 35.54 31.00 34.45 32.95 27.95 15.60 17.50 17.20 16.36
49.31 49.31 49.80 49.22 47.76 47.09 46.80 45.89 45.79 46.60 46.74 47.07 47.56 47.10 46.71 48.11 47.70 47.57 44.69 34.33 16.63 29.68 33.47 37.75 36.14 35.67 33.47 35.41 34.99 35.08 32.43 27.29 33.29 30.15 21.08 19.37 17.52 29.97 33.96 31.72 28.02 28.81 28.74 20.21 13.97 15.15 18.81
48.40 48.92 48.75 48.11 47.34 47.22 46.22 45.82 46.51 46.89 47.51 47.50 46.79 42.93 45.25 45.52 48.08 47.33 38.96 22.68 22.00 32.00 36.74 34.18 34.70 31.91 32.93 34.19 33.75 32.73 30.07 30.08 31.96 31.86 19.30 17.89 22.41 32.24 33.95 33.96 31.65 28.30 22.55 30.85 20.11 24.61 19.78
47.83 47.79 48.22 48.31 47.65 47.30 46.39 46.15 46.85 47.00 47.60 47.52 38.64 41.74 41.70 45.82 48.03 43.85 31.74 28.63 31.30 37.53 37.01 36.19 30.21 32.59 27.70 30.44 29.70 29.60 28.73 33.96 32.48 34.69 32.69 27.20 18.45 30.23 32.16 33.33 33.29 29.73 32.93 21.32 18.79 9.41 4.12
48.20 47.73 47.54 48.08 48.09 47.73 47.26 47.59 47.51 47.32 47.72 47.43 38.62 38.88 42.96 46.73 46.02 35.24 21.56 27.74 34.94 38.20 37.85 34.03 32.18 30.58 31.41 29.28 30.81 28.72 30.40 34.11 35.32 34.06 33.73 29.29 20.97 24.06 29.17 26.10 23.44 24.67 24.47 22.31 22.70 22.93 17.32
48.65 48.28 48.52 48.04 48.34 47.95 46.93 47.62 47.72 47.35 47.24 44.08 38.57 33.74 43.77 45.62 31.91 32.13 29.10 34.81 37.00 35.82 37.68 36.16 35.02 34.09 31.66 30.98 28.79 29.09 29.19 32.05 36.37 34.42 27.11 30.51 18.78 17.85 22.53 29.83 33.83 29.91 25.87 25.20 11.22 9.98 16.41
47.93 48.19 47.98 47.95 48.02 47.24 47.37 47.57 47.62 46.89 45.96 38.23 36.50 37.07 42.95 42.63 20.83 26.11 32.82 35.05 36.68 35.30 35.56 34.82 34.18 34.85 34.12 30.01 25.46 30.61 31.34 36.34 35.79 33.67 29.16 29.29 18.08 8.70 17.69 23.47 28.53 25.10 27.39 24.62 20.74 21.51 16.54
47.70 47.26 47.18 47.13 46.90 47.27 47.02 46.67 47.30 46.28 45.70 39.41 36.56 27.29 32.22 34.13 36.29 33.38 31.00 32.08 31.89 37.12 35.63 36.20 34.55 34.21 31.04 27.51 31.88 28.11 29.81 34.78 36.06 34.52 39.34 33.40 22.86 16.03 13.69 13.82 16.82 11.79 17.57 22.44 19.77 9.10 15.58
47.16 47.28 47.33 47.17 47.53 47.08 46.35 47.01 47.31 46.45 46.26 40.10 35.80 31.57 33.49 26.03 26.18 32.97 33.65 33.77 32.68 30.71 34.53 35.34 31.90 32.07 30.34 24.07 26.04 25.58 30.23 31.18 33.57 35.71 32.32 29.43 14.01 17.56 18.86 25.02 26.00 24.42 23.03 24.84 19.92 20.62 15.61
47.26 47.54 47.65 47.63 47.58 47.77 46.64 47.00 47.48 46.84 46.17 38.32 28.46 32.44 35.09 32.17 34.86 32.20 32.27 29.61 31.33 34.09 33.49 31.70 29.20 32.94 31.41 25.07 26.06 21.97 27.28 27.16 26.32 30.34 28.06 28.53 15.20 23.66 20.71 25.52 25.93 24.20 26.71 26.66 27.13 27.43 26.41
47.17 47.15 47.08 46.97 47.43 47.28 47.21 46.93 47.19 47.06 44.65 39.04 39.98 38.36 36.04 33.71 30.90 28.43 29.55 32.76 33.51 35.60 35.14 35.59 33.15 29.77 26.84 29.75 31.69 31.57 31.23 30.90 30.14 26.72 24.90 24.32 19.33 17.34 14.11 23.71 23.61 16.32 25.87 28.44 29.53 30.33 31.09
47.28 47.24 47.13 46.83 47.26 47.11 47.54 47.07 46.97 46.98 45.01 40.23 39.56 38.10 32.55 24.89 29.65 30.70 35.36 35.83 34.64 34.05 30.61 35.00 34.36 29.85 33.26 36.04 34.42 32.88 31.83 31.83 30.91 29.89 30.48 24.25 22.71 19.93 16.37 21.60 4.19 24.69 34.12 32.63 31.41 32.83 33.60
46.42 46.55 46.19 46.33 47.17 46.88 47.22 47.02 46.94 46.84 46.88 40.30 41.19 38.24 33.06 24.52 31.03 33.06 35.18 33.89 33.87 33.79 31.93 32.87 34.67 35.38 35.34 32.35 22.43 15.76 18.47 21.89 24.39 30.95 30.01 30.13 24.02 15.17 15.93 14.93 22.05 26.83 30.95 29.64 28.19 28.26 33.20
45.26 45.44 44.39 44.58 45.27 46.51 46.93 46.63 46.75 46.93 46.83 41.59 41.09 41.50 36.80 28.17 27.66 34.93 32.30 34.22 27.99 27.57 29.32 33.64 36.89 36.38 33.73 24.93 15.80 7.12 10.73 18.38 17.58 25.31 33.03 31.44 30.20 23.51 14.80 12.22 6.18 22.93 32.44 35.98 33.78 22.78 33.64
44.52 45.22 43.80 43.30 44.18 45.17 46.95 46.68 46.66 46.97 47.06 42.04 41.26 42.59 36.87 29.26 32.96 33.61 28.75 29.36 34.19 30.96 27.33 29.44 30.69 30.35 31.73 16.92 11.43 14.66 18.26 28.08 20.47 18.85 20.27 23.04 19.54 15.58 12.39 13.09 22.53 32.60 33.86 36.12 20.39 19.79 34.52
43.85 44.24 43.70 43.74 44.45 45.26 46.86 46.79 46.79 46.67 46.93 42.88 40.23 43.12 37.80 30.50 32.94 36.57 36.89 31.97 31.86 31.25 25.00 29.16 26.39 26.99 20.08 14.54 14.92 17.07 19.50 22.30 22.44 26.21 24.68 22.81 18.83 12.51 15.21 9.31 13.26 35.34 33.90 26.84 30.18 33.87 35.38
43.85 43.75 43.30 43.41 44.64 46.23 46.21 45.78 46.14 46.65 47.00 45.69 37.90 43.64 44.05 35.11 33.23 38.18 39.07 39.57 37.80 37.24 32.06 30.89 28.82 29.11 27.08 19.31 20.70 23.54 19.65 21.35 23.15 16.61 29.48 19.98 24.40 21.15 22.09 21.35 32.98 35.64 34.58 36.25 37.89 35.15 35.51
MSLP
1023.18 1023.43 1023.55 1023.06 1023.17 1023.04 1023.76 1024.14 1024.27 1024.11 1023.90 1023.70 1023.42 1023.33 1022.89 1022.96 1022.82 1022.21 1021.72 1021.21 1020.75 1020.39 1020.15 1019.80 1019.64 1019.52 1018.98 1019.24 1019.16 1018.12 1017.87 1017.40 1017.04 1016.73 1016.88 1016.67 1016.87 1017.00 1017.03 1016.78 1015.86 1014.96 1014.43 1013.82 1013.27 1012.87 1012.66
1023.46 1023.67 1023.55 1023.36 1022.91 1023.50 1023.99 1024.18 1024.09 1024.03 1023.98 1023.73 1023.50 1023.21 1023.18 1022.90 1022.65 1021.98 1021.48 1020.96 1020.65 1020.43 1020.10 1019.85 1019.58 1019.34 1019.55 1019.52 1018.70 1018.13 1017.83 1017.47 1017.53 1017.34 1017.57 1017.33 1017.74 1017.73 1017.73 1017.37 1017.05 1016.00 1015.38 1014.69 1013.78 1013.41 1013.15
1023.60 1023.89 1023.80 1023.64 1022.99 1023.82 1024.27 1024.33 1024.18 1024.17 1024.01 1023.70 1023.28 1023.00 1023.13 1022.79 1022.64 1022.06 1021.50 1020.88 1020.52 1020.35 1020.14 1019.94 1019.78 1019.58 1019.19 1019.56 1018.89 1018.62 1018.26 1018.06 1018.07 1017.89 1018.02 1017.71 1018.00 1018.34 1018.16 1017.80 1017.08 1016.76 1016.14 1015.52 1014.82 1014.38 1013.74
1023.64 1023.84 1023.82 1023.76 1023.12 1023.98 1024.55 1024.37 1024.25 1024.24 1023.90 1023.75 1023.50 1023.12 1022.88 1022.79 1022.51 1022.01 1021.43 1020.92 1020.53 1020.31 1020.10 1019.84 1019.89 1019.74 1019.64 1019.05 1018.94 1018.65 1018.59 1018.40 1017.95 1017.57 1017.86 1017.79 1017.98 1018.28 1018.38 1017.82 1017.57 1017.48 1016.69 1015.96 1014.86 1014.32 1013.57
1023.56 1023.84 1023.86 1023.68 1023.35 1024.11 1024.67 1024.46 1024.33 1024.41 1024.03 1023.64 1023.50 1023.03 1022.82 1022.76 1022.41 1021.87 1021.24 1020.77 1020.37 1020.10 1019.94 1019.66 1019.58 1019.38 1019.43 1019.09 1018.98 1018.77 1018.64 1018.54 1018.20 1017.76 1017.44 1017.39 1017.91 1018.08 1017.91 1018.16 1018.58 1017.94 1017.53 1016.83 1015.57 1014.68 1014.44
1023.54 1023.75 1024.02 1023.68 1023.80 1024.24 1024.63 1024.65 1024.43 1024.47 1024.14 1023.77 1023.66 1023.18 1022.93 1022.58 1022.36 1021.89 1021.17 1020.77 1020.32 1020.13 1019.56 1019.42 1019.19 1019.60 1019.46 1019.48 1019.23 1019.10 1018.81 1018.52 1018.46 1017.99 1017.23 1017.86 1018.32 1018.55 1018.51 1018.88 1019.14 1018.71 1018.07 1017.32 1016.51 1015.79 1014.43
1023.53 1024.01 1023.80 1023.76 1023.94 1024.36 1024.59 1024.80 1024.46 1024.51 1024.35 1023.92 1023.70 1023.45 1023.07 1022.62 1022.23 1021.96 1021.54 1020.64 1020.79 1020.51 1019.70 1019.90 1019.88 1019.72 1019.71 1019.53 1019.21 1019.14 1018.88 1018.73 1018.96 1018.81 1019.01 1018.78 1019.13 1019.27 1019.15 1018.94 1018.72 1018.64 1018.45 1017.87 1016.89 1015.94 1015.51
1023.61 1023.74 1023.83 1023.89 1024.00 1024.42 1024.58 1024.63 1024.49 1024.47 1024.39 1024.05 1023.79 1023.44 1023.17 1022.63 1022.28 1021.39 1021.57 1021.34 1021.29 1021.30 1020.75 1019.95 1019.86 1019.91 1019.65 1019.34 1019.18 1019.14 1019.21 1019.79 1019.79 1020.01 1019.93 1020.05 1019.87 1019.50 1019.18 1018.98 1018.84 1018.73 1018.55 1017.99 1017.22 1016.46 1016.27
1023.63 1023.68 1023.57 1023.99 1024.21 1024.52 1024.62 1024.72 1024.67 1024.51 1024.43 1024.10 1023.79 1023.43 1023.13 1022.86 1022.38 1021.70 1021.61 1021.64 1021.19 1021.17 1021.01 1020.32 1019.83 1019.57 1019.39 1019.26 1019.46 1019.45 1019.76 1020.30 1020.58 1020.85 1021.00 1021.05 1020.69 1020.00 1019.59 1019.44 1019.26 1019.16 1019.03 1018.69 1018.44 1017.60 1016.78
1023.53 1023.77 1023.66 1023.87 1024.35 1024.59 1024.54 1024.65 1024.71 1024.62 1024.42 1024.22 1023.89 1023.56 1023.15 1022.93 1022.88 1021.76 1021.89 1021.63 1021.40 1021.41 1021.43 1020.80 1019.77 1019.51 1019.23 1018.92 1019.53 1019.55 1019.77 1020.63 1021.03 1021.46 1021.37 1021.49 1021.15 1020.77 1020.30 1019.95 1019.77 1019.53 1019.33 1019.35 1019.41 1019.50 1018.82
1023.28 1023.60 1024.01 1024.06 1024.41 1024.59 1024.73 1024.77 1024.80 1024.69 1024.40 1024.21 1023.92 1023.56 1023.31 1023.36 1023.21 1022.51 1022.48 1021.94 1021.58 1021.62 1021.79 1020.83 1019.61 1019.23 1018.91 1019.42 1020.01 1019.97 1019.91 1020.46 1021.37 1022.33 1022.92 1022.77 1021.95 1021.49 1021.14 1020.89 1020.66 1020.47 1020.21 1020.24 1020.30 1020.04 1019.76
1023.25 1023.39 1023.88 1024.22 1024.47 1024.65 1024.75 1024.77 1024.80 1024.68 1024.58 1024.21 1023.89 1023.72 1023.38 1022.75 1022.88 1022.67 1022.39 1022.28 1022.03 1022.17 1021.89 1020.52 1019.54 1019.39 1019.39 1019.55 1019.99 1020.30 1020.66 1020.85 1021.83 1023.12 1023.66 1023.46 1022.29 1022.52 1022.48 1021.69 1021.07 1020.79 1020.74 1020.80 1020.54 1020.45 1020.07
1023.23 1023.35 1023.68 1024.12 1024.37 1024.53 1024.62 1024.73 1024.70 1024.77 1024.60 1024.19 1023.90 1023.67 1023.44 1022.60 1022.92 1022.57 1022.60 1022.76 1023.19 1022.20 1021.51 1020.49 1019.87 1019.69 1019.79 1020.27 1020.52 1021.14 1021.51 1022.48 1023.82 1024.85 1025.24 1024.51 1023.34 1023.08 1022.89 1022.30 1021.47 1021.83 1022.32 1022.55 1022.32 1021.67 1021.18
1022.88 1023.17 1023.58 1024.04 1024.27 1024.34 1024.49 1024.58 1024.57 1024.58 1024.61 1024.20 1024.14 1023.76 1023.37 1022.76 1022.50 1022.49 1022.99 1023.32 1023.14 1022.44 1021.31 1020.61 1020.28 1020.15 1020.17 1020.73 1021.35 1021.71 1022.29 1023.39 1024.45 1025.64 1026.32 1026.20 1024.96 1024.38 1024.24 1023.80 1023.56 1023.27 1023.42 1024.37 1024.32 1023.62 1022.65
1022.94 1023.41 1023.62 1024.14 1024.38 1024.32 1024.27 1024.44 1024.48 1024.49 1024.65 1024.29 1023.85 1023.54 1023.36 1022.94 1022.49 1022.57 1023.11 1023.87 1023.23 1021.98 1021.05 1020.87 1020.58 1020.50 1020.63 1021.43 1021.81 1022.26 1022.77 1023.62 1024.71 1025.86 1027.07 1027.11 1026.14 1025.64 1024.91 1024.54 1024.35 1023.94 1024.61 1025.07 1025.03 1024.42 1023.55
1022.65 1023.24 1023.64 1024.10 1024.24 1024.30 1024.34 1024.34 1024.34 1024.49 1024.42 1024.48 1024.45 1023.85 1023.27 1022.69 1022.45 1022.75 1023.71 1023.63 1022.62 1021.73 1021.36 1021.11 1021.00 1021.35 1021.63 1022.04 1022.59 1022.95 1023.12 1023.71 1024.63 1025.56 1026.33 1027.21 1026.69 1026.11 1025.59 1025.06 1024.75 1025.30 1025.25 1025.62 1026.22 1026.15 1024.82
1022.50 1023.08 1023.61 1024.05 1024.11 1024.28 1024.10 1024.27 1024.22 1024.39 1024.32 1024.64 1024.63 1023.78 1023.27 1022.89 1022.67 1023.62 1024.51 1023.56 1022.68 1022.11 1021.75 1021.88 1021.90 1022.24 1022.60 1023.03 1023.19 1023.48 1023.54 1024.02 1024.65 1025.47 1026.09 1026.93 1027.87 1027.41 1026.83 1026.47 1026.05 1025.57 1026.96 1027.77 1027.79 1027.56 1026.50
1022.35 1022.90 1023.40 1023.90 1024.07 1024.13 1024.04 1024.15 1024.29 1024.35 1024.33 1024.28 1024.27 1024.16 1023.23 1023.16 1024.28 1024.60 1024.39 1022.96 1022.76 1022.52 1022.41 1022.41 1022.76 1023.07 1023.45 1023.84 1024.04 1024.09 1024.05 1024.17 1024.60 1025.26 1026.32 1027.30 1028.29 1028.54 1027.91 1026.98 1026.79 1027.92 1028.74 1029.21 1029.76 1029.29 1028.35
1022.34 1022.84 1023.33 1023.67 1023.94 1024.04 1023.93 1024.03 1024.27 1024.47 1024.40 1024.83 1024.40 1024.29 1023.75 1023.55 1025.10 1025.14 1024.12 1023.54 1022.84 1022.82 1022.54 1022.80 1023.16 1023.50 1023.96 1024.62 1024.96 1024.50 1024.48 1024.41 1024.61 1025.32 1026.46 1027.44 1028.70 1029.12 1028.44 1027.83 1027.43 1027.85 1027.93 1028.44 1029.02 1028.73 1027.95
1022.24 1022.79 1023.12 1023.65 1023.79 1023.92 1024.02 1024.05 1024.29 1024.47 1024.47 1024.78 1024.77 1025.09 1025.21 1025.05 1025.36 1024.73 1024.01 1023.61 1023.26 1023.09 1022.96 1022.97 1023.56 1024.16 1024.65 1024.94 1025.24 1025.27 1025.12 1024.89 1025.09 1025.72 1026.17 1027.14 1028.58 1029.95 1030.10 1029.32 1028.78 1028.43 1027.65 1027.64 1028.00 1027.82 1026.49
1022.15 1022.64 1023.00 1023.37 1023.70 1023.83 1023.96 1024.10 1024.34 1024.36 1024.52 1024.96 1024.76 1025.44 1024.99 1025.49 1025.47 1024.70 1023.81 1023.46 1023.17 1023.32 1023.44 1023.49 1023.93 1024.30 1024.90 1025.34 1025.67 1026.05 1025.93 1025.67 1025.79 1026.04 1026.56 1027.39 1028.69 1029.48 1029.43 1028.85 1028.13 1027.25 1026.51 1025.93 1026.02 1025.49 1025.28
1022.02 1022.43 1022.84 1023.28 1023.46 1023.70 1023.82 1024.00 1024.25 1024.35 1024.46 1024.97 1024.68 1024.89 1024.78 1024.92 1024.45 1024.56 1023.96 1023.78 1023.26 1023.01 1023.24 1023.49 1024.03 1024.39 1024.85 1025.68 1026.19 1026.48 1026.71 1026.76 1026.62 1026.68 1027.13 1027.75 1028.67 1029.20 1028.60 1028.22 1027.25 1026.00 1024.86 1023.87 1023.71 1023.21 1022.62
1021.82 1022.30 1022.64 1022.99 1023.48 1023.58 1023.74 1023.99 1024.29 1024.39 1024.57 1024.58 1024.18 1023.93 1024.61 1025.14 1024.77 1024.59 1023.97 1023.46 1023.13 1022.93 1023.27 1023.62 1023.97 1024.67 1025.31 1025.98 1026.34 1026.54 1026.68 1026.87 1026.98 1027.26 1027.79 1028.47 1029.12 1029.49 1028.56 1027.65 1026.72 1025.02 1022.98 1022.04 1021.86 1022.08 1022.12
1021.67 1022.05 1022.49 1022.88 1023.34 1023.49 1023.56 1024.04 1024.26 1024.46 1024.58 1024.88 1024.75 1024.73 1025.29 1025.80 1025.30 1024.58 1023.82 1023.44 1023.38 1023.30 1023.77 1023.98 1024.44 1025.12 1026.05 1026.14 1026.45 1026.45 1026.38 1026.24 1026.33 1026.40 1026.93 1027.59 1028.47 1029.32 1028.82 1027.80 1026.11 1023.11 1021.88 1021.50 1021.58 1021.91 1021.64
1021.65 1021.95 1022.48 1022.72 1023.10 1023.39 1023.62 1023.94 1024.22 1024.50 1024.66 1025.00 1024.78 1024.88 1025.47 1026.00 1025.78 1024.74 1023.94 1023.59 1023.66 1023.76 1024.34 1024.66 1024.85 1025.51 1026.01 1026.81 1028.25 1028.14 1027.27 1026.75 1025.76 1025.26 1025.61 1026.22 1027.51 1028.63 1028.90 1027.64 1025.44 1022.67 1021.75 1021.35 1021.12 1021.58 1021.38
1021.65 1022.04 1022.48 1022.83 1023.04 1023.21 1023.53 1023.92 1024.28 1024.55 1024.66 1025.12 1024.90 1024.81 1025.53 1026.18 1025.80 1025.19 1024.48 1023.85 1024.09 1024.57 1024.84 1024.96 1025.34 1025.82 1026.59 1028.37 1029.67 1029.83 1028.48 1027.10 1026.10 1024.99 1024.28 1024.98 1025.90 1027.57 1028.04 1027.42 1025.45 1022.80 1021.47 1020.52 1019.93 1021.18 1020.86
1021.55 1021.96 1022.44 1022.80 1022.98 1023.21 1023.43 1023.67 1024.11 1024.58 1024.75 1025.19 1025.03 1024.97 1025.72 1026.46 1025.69 1025.32 1024.98 1024.77 1024.25 1024.65 1025.58 1025.79 1025.98 1026.94 1027.50 1029.19 1030.48 1030.06 1028.48 1026.83 1025.81 1025.15 1024.65 1024.88 1025.68 1026.42 1026.71 1026.23 1023.99 1021.96 1020.90 1019.83 1020.16 1020.87 1019.94
1021.44 1021.86 1022.31 1022.65 1022.85 1023.13 1023.28 1023.64 1024.14 1024.40 1024.74 1025.22 1025.09 1025.26 1025.73 1026.24 1025.87 1025.40 1025.30 1025.36 1025.10 1024.97 1025.82 1026.36 1027.21 1027.40 1028.75 1029.83 1030.13 1029.43 1028.15 1026.84 1025.73 1024.72 1024.36 1024.64 1025.13 1025.52 1025.39 1024.69 1022.74 1020.79 1020.34 1020.15 1019.77 1019.48 1019.53
1021.34 1021.72 1022.12 1022.49 1022.64 1022.81 1023.24 1023.62 1024.02 1024.31 1024.59 1025.18 1025.57 1025.43 1025.58 1026.35 1026.47 1025.77 1025.32 1025.17 1025.19 1025.29 1025.99 1025.96 1026.42 1026.85 1027.86 1028.95 1029.21 1029.03 1028.39 1027.11 1026.10 1025.43 1024.09 1024.07 1023.63 1023.93 1023.74 1022.29 1020.78 1019.86 1019.62 1019.23 1019.11 1019.52 1019.44
Wind_Speed
10 10 10 12 11 12 8 5 6 7 8 10 11 13 13 15 15 14 14 14 14 14 12 13 15 12 7 6 5 3 7 10 9 13 12 8 10 8 6 7 11 5 7 15 16 15 12
10 10 10 10 12 9 6 4 6 7 8 10 12 13 15 15 17 17 15 15 13 11 10 12 13 14 1 6 8 9 8 5 7 8 10 9 7 8 6 6 5 9 14 14 12 13 10
10 9 9 9 12 7 4 4 6 8 9 11 11 12 14 15 17 16 15 14 11 8 8 10 11 5 13 3 7 6 10 6 6 6 5 7 6 5 10 8 6 12 12 15 12 9 12
10 9 8 8 10 5 5 5 5 6 8 10 12 12 14 15 16 17 15 13 8 7 9 9 8 3 5 1 6 6 7 9 10 3 2 5 4 4 4 6 7 8 6 5 2 9 11
11 8 8 9 11 7 3 3 4 6 8 10 11 13 15 16 16 15 15 13 8 8 9 12 4 2 4 1 6 7 7 7 8 7 7 7 1 3 4 3 4 4 6 11 12 8 10
10 10 8 9 8 4 2 2 3 6 8 10 12 14 16 17 17 16 17 7 7 7 5 5 5 7 5 4 3 5 5 8 6 11 7 2 3 2 5 6 4 9 14 15 15 13 19
9 7 7 7 7 5 2 1 3 7 9 10 12 14 17 19 18 16 10 4 4 6 9 6 7 8 6 6 2 3 8 10 10 7 7 7 5 5 9 8 9 8 11 13 16 15 13
9 9 8 7 7 3 1 1 3 6 8 10 11 14 17 20 20 19 1 4 4 2 4 3 9 5 1 4 7 7 10 8 7 7 9 7 4 10 15 14 14 9 12 15 14 15 16
10 9 9 7 6 2 1 2 3 5 7 9 11 13 15 18 19 7 7 5 5 8 3 2 3 4 2 2 1 3 6 5 6 7 9 5 8 15 15 14 16 11 11 13 18 19 14
10 9 9 8 5 3 4 2 3 6 8 10 12 14 14 17 8 2 3 6 5 3 6 5 5 1 3 4 2 8 4 3 5 8 8 5 11 14 14 11 11 12 9 14 15 15 8
11 10 8 6 6 3 2 2 5 6 8 10 12 14 14 7 6 3 3 6 2 4 5 5 4 1 6 6 4 3 6 3 4 8 7 8 13 13 12 15 13 8 14 7 10 14 9
11 11 8 6 7 4 2 2 4 6 9 11 13 14 13 4 0 4 6 7 3 7 3 4 3 4 3 6 4 6 6 7 7 5 9 13 11 6 5 15 9 13 15 13 10 4 5
10 11 10 9 8 5 3 1 4 7 10 11 13 15 11 5 1 4 4 2 6 5 5 6 3 3 2 4 4 5 5 7 5 7 8 9 7 3 18 17 14 14 11 5 5 5 3
10 9 8 10 8 4 4 1 3 7 10 11 13 13 9 3 4 4 3 5 7 6 4 2 2 4 3 3 3 1 3 3 6 7 2 5 9 12 19 13 13 12 5 1 5 3 10
11 9 9 9 7 6 4 1 3 6 10 12 15 3 3 2 3 3 4 6 8 5 4 2 3 3 3 6 2 4 3 4 4 5 5 3 3 16 12 15 7 8 5 8 5 4 6
11 10 9 9 8 7 4 2 2 6 8 10 4 3 1 3 3 3 6 3 3 6 3 1 2 3 4 6 5 4 1 2 5 6 7 4 7 5 14 13 10 10 12 4 5 4 5
11 12 9 9 8 7 5 5 3 5 7 8 1 1 3 5 4 6 5 4 5 7 6 7 6 4 4 5 5 5 3 5 5 2 3 2 4 6 7 7 14 15 5 6 2 3 4
11 10 9 8 7 8 5 4 3 4 11 0 3 3 3 4 5 0 1 2 2 7 2 4 3 2 3 6 4 4 4 4 5 1 4 2 5 2 12 13 10 13 5 3 3 7 2
11 10 10 8 9 6 5 4 2 2 7 3 1 3 3 5 3 2 1 4 4 3 4 5 1 3 3 2 3 5 4 5 4 4 1 2 2 5 6 5 5 2 2 4 4 3 5
13 11 10 9 8 7 5 4 3 1 3 0 3 3 5 5 3 2 4 5 4 4 5 4 2 5 3 2 4 4 6 5 7 7 3 6 5 8 7 11 4 7 7 7 7 3 9
12 12 11 10 9 8 5 4 3 1 5 2 3 3 5 1 4 3 0 2 6 4 2 2 1 6 5 1 4 5 5 8 8 8 5 2 2 3 6 12 15 19 18 18 12 12 8
11 11 11 10 9 9 7 5 4 0 6 1 5 3 4 1 6 4 4 2 3 4 7 5 6 6 5 1 3 5 4 5 3 5 5 3 3 5 15 13 16 19 18 21 16 18 19
12 11 9 9 9 8 8 6 4 1 3 1 3 2 5 5 1 4 5 5 4 2 4 4 3 4 3 3 4 4 5 5 7 5 3 4 1 2 8 8 12 10 9 3 4 11 6
13 12 11 10 9 8 10 7 5 3 1 1 2 1 4 3 1 4 5 4 4 3 5 2 4 3 3 5 4 4 7 9 9 11 9 5 3 3 8 10 2 8 6 1 5 2 3
10 10 10 9 9 8 9 8 7 5 2 1 2 3 3 1 2 7 6 6 2 2 2 3 4 5 5 6 5 7 6 6 5 8 11 14 5 2 3 3 11 10 5 5 4 1 9
10 11 10 9 7 7 9 9 8 7 5 1 2 1 4 4 3 6 4 1 5 4 2 2 6 7 6 4 4 1 3 5 4 3 4 11 12 8 1 1 4 4 6 11 13 2 9
11 12 11 9 7 6 9 11 8 7 7 1 1 2 4 2 3 3 2 2 3 3 3 3 2 4 5 3 2 3 4 4 3 6 3 1 3 7 3 4 7 1 7 13 5 9 6
12 12 10 8 9 8 10 11 9 8 7 4 1 2 4 2 5 3 3 3 6 3 5 4 5 3 3 2 3 5 2 5 3 3 4 5 5 4 2 2 7 4 11 3 8 5 3
12 11 9 8 9 13 12 10 9 9 9 6 1 1 2 3 4 2 4 6 4 2 2 1 6 4 5 3 2 2 3 3 2 4 1 4 5 4 6 8 6 7 10 6 4 2 3
Wind_Direction
143 140 134 120 106 94 89 73 45 27 14 12 10 4 2 350 343 346 346 347 348 345 336 334 336 342 2 60 37 8 326 347 3 2 357 8 34 2 6 321 328 309 334 326 318 319 314
152 147 132 116 101 89 81 57 34 16 9 12 4 2 354 349 340 340 343 344 340 334 328 333 337 331 135 82 275 347 349 3 352 11 349 16 11 332 280 285 303 322 326 318 313 309 309
154 146 124 111 96 86 69 29 33 11 6 5 7 4 350 348 336 335 337 339 334 322 319 324 336 322 57 83 310 7 360 359 12 4 346 354 342 356 340 317 297 313 307 300 286 299 295
157 149 135 122 100 87 80 55 32 17 17 6 358 358 349 340 334 330 336 338 328 316 317 312 315 282 93 294 331 30 24 356 337 310 244 289 317 276 210 259 311 299 286 314 325 247 251
162 160 138 117 104 105 83 55 42 5 8 6 0 357 346 334 332 331 334 330 319 316 304 303 325 89 73 149 32 333 38 337 317 297 263 245 328 250 303 244 328 286 280 299 304 314 341
154 147 139 116 114 127 119 68 24 2 9 10 358 353 341 332 331 334 328 293 287 306 270 265 268 46 34 26 337 300 2 306 322 322 331 31 174 319 320 48 333 323 325 321 317 325 322
160 163 146 134 132 142 138 355 14 7 4 5 358 349 339 333 331 331 340 337 10 12 35 62 55 85 43 329 252 93 8 357 1 353 22 326 358 306 306 333 318 318 312 307 307 312 313
169 162 145 133 124 136 157 300 3 1 359 356 353 349 340 333 326 325 122 47 41 183 87 149 138 127 220 274 22 24 43 24 359 3 357 8 317 332 327 318 310 318 312 304 308 316 327
172 163 148 144 121 95 283 311 330 355 353 351 346 344 337 330 324 331 65 35 24 16 128 44 1 91 275 21 2 26 55 15 342 5 351 339 304 343 338 339 329 321 306 321 328 332 312
175 163 148 141 122 81 91 78 348 351 353 346 342 338 336 332 327 267 54 358 24 15 83 148 202 101 267 243 115 89 91 96 339 349 338 350 342 318 316 308 305 302 325 313 338 344 309
166 163 168 158 146 136 98 10 344 349 350 345 338 335 333 356 294 51 4 335 7 45 76 239 97 152 269 98 223 119 30 35 4 22 16 286 340 345 353 348 348 311 339 338 299 288 310
169 170 178 186 168 174 176 342 340 350 342 341 334 335 344 324 186 340 353 321 27 57 247 177 152 171 19 85 7 37 11 352 64 26 1 318 297 49 21 342 331 326 346 319 292 237 260
185 190 200 197 180 196 207 326 360 350 340 339 333 330 326 306 66 347 330 13 45 107 256 151 114 78 273 71 56 25 350 52 74 38 350 319 9 108 23 345 336 359 342 337 336 1 236
161 159 159 164 179 200 183 246 7 352 340 342 329 324 307 69 339 334 6 56 75 210 261 57 146 259 213 107 96 299 330 93 79 76 357 356 336 20 339 340 341 321 333 183 296 308 296
159 167 167 176 184 178 180 197 357 353 344 346 321 289 247 315 325 4 79 71 187 225 48 39 279 274 93 114 152 47 329 106 118 108 118 335 265 321 322 354 333 313 9 297 262 276 276
169 180 186 194 188 185 194 233 333 333 345 354 337 287 12 279 356 37 75 189 99 42 81 245 19 50 10 15 33 359 1 151 114 128 144 242 295 321 344 319 336 338 313 5 352 333 304
173 172 178 191 187 191 204 247 276 310 330 339 314 101 270 318 45 47 121 207 103 77 17 18 38 29 10 14 0 350 332 95 82 23 321 49 108 304 342 332 315 322 34 346 305 3 309
166 169 174 180 191 188 196 222 253 324 329 354 263 72 275 9 40 133 174 60 316 121 56 85 41 359 24 22 329 338 353 50 149 80 4 120 158 298 306 301 72 61 9 7 94 312 266
167 173 174 186 182 177 177 186 205 345 25 336 274 104 321 66 111 304 153 84 344 88 166 137 114 113 61 348 331 314 2 320 329 100 33 47 323 343 324 350 355 297 286 223 202 186 226
160 165 171 180 178 170 170 191 204 327 15 31 57 69 330 38 322 243 175 152 144 53 358 81 32 47 353 271 276 304 339 338 11 0 313 168 180 172 256 241 237 306 282 258 198 156 257
172 173 174 177 177 168 171 184 203 318 341 344 57 213 199 202 298 279 229 188 176 143 196 92 354 207 230 256 345 284 311 327 335 338 7 356 205 188 243 263 284 286 285 286 270 248 221
179 186 188 188 183 177 173 177 189 295 337 303 123 120 317 279 137 208 101 314 253 207 156 188 166 279 40 88 218 267 345 11 268 358 350 345 293 321 292 282 279 288 300 282 279 270 262
174 176 175 170 176 166 170 178 184 194 29 313 311 7 93 313 164 127 182 187 213 249 77 139 43 40 4 7 3 302 273 256 246 252 269 269 180 38 264 304 314 300 264 308 318 343 302
177 175 177 173 176 173 172 181 188 172 110 356 355 10 87 276 259 205 193 223 268 141 164 110 155 204 71 13 319 303 274 260 238 234 200 223 206 165 278 313 307 242 355 101 20 45 351
158 160 164 158 176 170 172 180 191 182 168 347 322 83 96 164 323 312 258 162 171 44 189 193 251 110 80 49 18 350 328 5 276 230 213 208 175 216 221 252 268 292 344 332 302 139 318
179 171 170 167 156 156 171 186 187 181 170 60 302 52 94 119 249 331 323 220 168 181 286 109 84 95 81 85 70 202 256 212 300 290 217 215 202 193 189 245 261 251 303 303 294 175 291
189 182 179 183 187 182 184 181 181 183 178 184 339 14 94 128 281 14 6 304 16 97 116 58 90 73 76 111 143 212 245 254 230 186 207 275 331 194 201 225 261 195 302 317 58 247 230
184 183 183 195 195 200 187 176 182 187 187 157 236 234 123 165 285 332 314 315 343 49 141 190 42 340 38 100 154 252 227 249 302 277 277 200 193 210 174 164 269 3 343 343 227 293 194
176 171 171 185 213 181 160 160 177 190 190 172 320 229 77 118 246 322 274 262 219 287 99 229 174 146 170 123 286 329 321 334 307 273 250 283 182 218 186 216 243 309 291 287 48 2 332